Погода в Октябрьском

Россия / Ханты-Мансийский автономный округ - Югра     62°27′24″N   66°02′31″E
темп.,
°C
ветер,
м/с
пор.,
м/с
влажн.,
%
обл.,
%
осадки,
мм/ч
давл.,
гПа
погр.,
м
20 сентября, пн
пн2023:00+2с51196100 1.5 10091014
02:00+1ссз51197100 0.1 1012788
05:00+1ссз51197100 0.1 1015686
08:00+1с61188100 0.0 1017788
11:00+1с61084100 0.1 1020919
14:00+2с51083100 0.1 1022960
17:00+2с4982100 0.1 10241064
20:00+2ссз31085100 0.0 1025631
21 сентября, вт
вт2123:00+2сз2888100 0.0 1025346
02:00+2сз3891100 0.0 1025371
05:00+1сз31188100 0.0 1024483
08:00+1зсз4118889 0.0 1023478
11:00+4сз51084100 0.0 1022725
14:00+2сз41197100 0.1 1021473
17:00+4сз41088100 0.1 1020672
20:00+4сз3897100 0.1 1020681
22 сентября, ср
ср2223:00+4сз3897100 0.1 1020327
02:00+3ссз279796 0.0 1020322
05:00+3с2696100 0.0 1022393
08:00+3с2790100 0.0 1023422
11:00+5с357499 0.0 10231009
14:00+5сз3678100 0.1 1024702
17:00+5ссз368698 0.2 1024580
20:00+2сз239669 0.1 102558
23 сентября, чт
чт2323:00+1сз229424 0.1 102621
02:00+3з2591100 0.0 1026167
05:00+4з2694100 0.0 1026175
08:00+4зсз25929 0.0 1026159
11:00+9зсз357415 0.0 1027513
14:00+11зсз4666100 0.0 1026851
17:00+9з2478100 0.0 1026118
20:00+7з2289100 0.0 102619
24 сентября, пт
пт2423:00+6зюз2389100 0.0 102682
02:00+5зюз2789100 0.0 1025175
05:00+4зюз2591100 0.0 1025103
08:00+5зюз2587100 0.0 1025170
11:00+9зюз2372100 0.0 1025369
14:00+11зюз236395 0.0 1025674
17:00+10зюз127132 0.0 102544
20:00+5зюз11905 0.0 102510